Weather History for Mineral Wells, TX

Change the Weather History Date:

Monday, October 14, 2013

  Actual Average Record
Temperature  
Mean Temperature 72 °F -  
Max Temperature 78 °F 76 °F 93 °F (1999)
Min Temperature 68 °F 53 °F 42 °F (1997)
Cooling Degree Days 8    
Growing Degree Days 22 (Base 50)    
Moisture  
Dew Point 69 °F    
Average Humidity 93    
Maximum Humidity 100    
Minimum Humidity 78    
Precipitation  
Precipitation 0.94 in - - ()
Sea Level Pressure  
Sea Level Pressure 30.00 in    
Wind  
Wind Speed 10 mph (SE)    
Max Wind Speed 14 mph    
Max Gust Speed 21 mph    
Visibility 7 miles    
Events Rain    
Averages and records for this station are not official NWS values.
T = Trace of Precipitation, MM = Missing Value Source: NWS Daily Summary

Daily Weather History Graph

Daily Weather History Graph

Search for Another Location

Airport:

Trip Planner

Search our weather history database for the weather conditions in past years. The results will help you decide how hot, cold, wet, or windy it might be!

Date:

Astronomy

Oct. 14, 2013 Rise Set
Actual Time 7:35 AM CDT 7:00 PM CDT
Civil Twilight 7:10 AM CDT 7:24 PM CDT
Nautical Twilight 6:42 AM CDT 7:53 PM CDT
Astronomical Twilight 6:13 AM CDT 8:21 PM CDT
Moon 4:18 PM CDT (10/14) 3:07 AM CDT (10/14)
Length of Visible Light 12h 13m
Length of Day
11h 24m
Waxing Gibbous, 79% of the Moon is Illuminated
Oct 14
Waxing Gibbous
Oct 18
Full
Oct 26
Last Quarter
Nov 3
New
Nov 9
First Quarter

Hourly Weather History & Observations

Time (CDT) Temp. Dew Point Humidity Pressure Visibility Wind Dir Wind Speed Gust Speed Precip Events Conditions
12:12 AM 69.8 °F 66.2 °F 88% 30.13 in 10.0 mi ESE 9.2 mph - N/A   Overcast
12:23 AM 69.8 °F 66.2 °F 88% 30.13 in 10.0 mi East 6.9 mph - N/A   Mostly Cloudy
12:49 AM 69.8 °F 66.2 °F 88% 30.13 in 10.0 mi ESE 9.2 mph - N/A   Overcast
12:53 AM 70.0 °F 66.0 °F 87% 30.09 in 10.0 mi ESE 10.4 mph - N/A   Overcast
1:34 AM 69.8 °F 66.2 °F 88% 30.12 in 10.0 mi ESE 9.2 mph - N/A   Overcast
1:41 AM 69.8 °F 66.2 °F 88% 30.12 in 10.0 mi ESE 6.9 mph - N/A   Overcast
1:53 AM 69.1 °F 66.0 °F 90% 30.09 in 10.0 mi ESE 8.1 mph - 0.00 in Rain Light Rain
2:07 AM 68.0 °F 66.2 °F 94% 30.11 in 8.0 mi ESE 11.5 mph - 0.00 in Rain Light Rain
2:14 AM 68.0 °F 66.2 °F 94% 30.11 in 6.0 mi ESE 9.2 mph - 0.00 in Rain Light Rain
2:45 AM 68.0 °F 66.2 °F 94% 30.11 in 5.0 mi ESE 8.1 mph - 0.04 in Rain Rain
2:53 AM 68.0 °F 66.9 °F 96% 30.07 in 5.0 mi East 8.1 mph - 0.06 in Rain Rain
3:53 AM 68.0 °F 66.9 °F 96% 30.04 in 5.0 mi ESE 8.1 mph - 0.08 in Rain Light Rain
4:53 AM 68.0 °F 66.9 °F 96% 30.02 in 5.0 mi ESE 10.4 mph - 0.17 in Rain Rain
5:29 AM 68.0 °F 68.0 °F 100% 30.05 in 2.5 mi SE 10.4 mph - 0.15 in Rain Heavy Rain
5:39 AM 68.0 °F 68.0 °F 100% 30.04 in 5.0 mi SE 11.5 mph - 0.17 in Rain Rain
5:53 AM 68.0 °F 68.0 °F 100% 30.01 in 4.0 mi SE 12.7 mph - 0.22 in Rain Rain
6:53 AM 68.0 °F 68.0 °F 100% 30.01 in 9.0 mi SE 12.7 mph - 0.05 in Rain Light Rain
7:43 AM 68.0 °F 68.0 °F 100% 30.04 in 2.5 mi SSE 11.5 mph - 0.09 in Rain Heavy Rain
7:51 AM 68.0 °F 68.0 °F 100% 30.04 in 4.0 mi SSE 10.4 mph - 0.10 in Rain Rain
7:53 AM 68.0 °F 68.0 °F 100% 30.01 in 4.0 mi SSE 10.4 mph - 0.10 in Rain Rain
8:12 AM 68.0 °F 68.0 °F 100% 30.04 in 1.8 mi SSE 10.4 mph - 0.09 in Rain Heavy Rain
8:23 AM 68.0 °F 68.0 °F 100% 30.05 in 2.5 mi SSE 9.2 mph - 0.13 in Rain Heavy Rain
8:33 AM 68.0 °F 68.0 °F 100% 30.05 in 1.8 mi South 9.2 mph - 0.16 in Rain Light Rain
8:36 AM 68.0 °F 68.0 °F 100% 30.05 in 3.0 mi South 8.1 mph - 0.16 in Rain Light Rain
8:53 AM 69.1 °F 68.0 °F 96% 30.02 in 9.0 mi SSE 9.2 mph - 0.17 in   Overcast
9:22 AM 69.8 °F 69.8 °F 100% 30.05 in 4.0 mi SSE 11.5 mph - 0.00 in Rain Light Rain
9:53 AM 69.1 °F 69.1 °F 100% 30.02 in 5.0 mi SSE 10.4 mph - 0.00 in Rain Light Rain
10:53 AM 70.0 °F 70.0 °F 100% 30.01 in 7.0 mi SSE 9.2 mph - 0.00 in   Overcast
11:36 AM 69.8 °F 69.8 °F 100% 30.02 in 1.8 mi SSE 11.5 mph - 0.04 in Rain Rain
11:48 AM 69.8 °F 69.8 °F 100% 30.02 in 3.0 mi SSE 6.9 mph - 0.06 in Rain Light Rain
11:53 AM 70.0 °F 70.0 °F 100% 29.99 in 2.5 mi SSE 9.2 mph - 0.06 in Rain Light Rain
12:05 PM 69.8 °F 69.8 °F 100% 30.02 in 1.8 mi SSE 9.2 mph - 0.03 in Rain Light Rain
12:09 PM 69.8 °F 69.8 °F 100% 30.01 in 3.0 mi South 9.2 mph - 0.03 in Rain Light Rain
12:53 PM 72.0 °F 70.0 °F 93% 29.96 in 10.0 mi SSE 11.5 mph - 0.03 in   Overcast
1:53 PM 73.0 °F 71.1 °F 93% 29.93 in 10.0 mi SSE 12.7 mph - N/A   Overcast
2:08 PM 73.4 °F 71.6 °F 94% 29.95 in 10.0 mi SSE 12.7 mph 20.7 mph N/A   Overcast
2:18 PM 73.4 °F 71.6 °F 94% 29.94 in 10.0 mi SSE 11.5 mph - N/A   Overcast
2:53 PM 75.0 °F 70.0 °F 84% 29.89 in 10.0 mi SSE 12.7 mph - N/A   Overcast
3:28 PM 77.0 °F 69.8 °F 78% 29.91 in 10.0 mi South 11.5 mph 19.6 mph N/A   Mostly Cloudy
3:36 PM 77.0 °F 71.6 °F 83% 29.91 in 10.0 mi SSE 9.2 mph 18.4 mph N/A   Mostly Cloudy
3:53 PM 77.0 °F 70.0 °F 79% 29.87 in 10.0 mi SSE 9.2 mph - N/A   Mostly Cloudy
4:30 PM 77.0 °F 69.8 °F 78% 29.90 in 10.0 mi South 9.2 mph - N/A   Overcast
4:53 PM 77.0 °F 70.0 °F 79% 29.86 in 10.0 mi SSE 10.4 mph - N/A   Mostly Cloudy
5:53 PM 75.9 °F 70.0 °F 82% 29.87 in 10.0 mi SSE 8.1 mph - N/A   Overcast
6:53 PM 75.0 °F 70.0 °F 84% 29.88 in 10.0 mi SSE 10.4 mph - N/A   Overcast
7:53 PM 73.9 °F 69.1 °F 85% 29.88 in 10.0 mi SSE 9.2 mph - N/A   Mostly Cloudy
8:53 PM 73.0 °F 71.1 °F 93% 29.89 in 10.0 mi SSE 10.4 mph - N/A   Partly Cloudy
9:53 PM 73.0 °F 70.0 °F 90% 29.90 in 10.0 mi SSE 12.7 mph - N/A   Partly Cloudy
10:22 PM 71.6 °F 69.8 °F 94% 29.93 in 10.0 mi SSE 12.7 mph - N/A   Partly Cloudy
10:53 PM 72.0 °F 70.0 °F 93% 29.89 in 10.0 mi SSE 13.8 mph - N/A   Partly Cloudy
11:53 PM 71.1 °F 70.0 °F 96% 29.90 in 10.0 mi SE 11.5 mph - N/A   Clear